HUERBEL Weather Reports


time (UTC)temp
F
wind
direction
speed
knots
gust
knots
rain 1hr
in
rain 24hr
in
rain mn
in
humidity
%
barometer
mb
20260507143212 58 259 8.7 0.0 0.00 0.00 0.05 66 1016.0
20260507140210 56 253 10.4 0.0 0.00 0.00 0.05 70 1016.0
20260507133210 56 268 7.8 0.0 0.00 0.00 0.05 69 1016.2
20260507130210 55 350 9.6 0.0 0.00 0.00 0.05 71 1016.1
20260507123210 55 286 6.1 0.0 0.00 0.00 0.05 78 1016.0
20260507120211 52 311 2.6 0.0 0.00 0.00 0.05 84 1016.1
20260507113210 51 344 3.5 0.0 0.00 0.00 0.05 84 1016.2
20260507110210 51 281 1.7 0.0 0.00 0.00 0.04 84 1016.1
20260507103216 52 336 8.7 0.0 0.00 0.00 0.02 78 1016.2
20260507100212 52 190 6.1 0.0 0.00 0.00 0.02 78 1016.1
20260507093210 52 242 9.6 0.0 0.00 0.00 0.02 78 1015.9
20260507090211 51 277 11.3 0.0 0.00 0.00 0.02 80 1015.7
20260507083212 50 232 12.2 0.0 0.00 0.00 0.02 83 1015.4
20260507080211 50 229 11.3 0.0 0.00 0.00 0.02 83 1015.3
20260507073212 49 196 9.6 0.0 0.00 0.00 0.02 84 1015.0
20260507070212 49 248 11.3 0.0 0.00 0.00 0.01 82 1014.7
20260507063211 50 275 9.6 0.0 0.00 0.00 0.00 81 1014.5
20260507060211 49 236 11.3 0.0 0.00 0.00 0.00 82 1014.2
20260507053211 49 211 10.4 0.0 0.00 0.00 0.00 82 1014.0
20260507050213 48 242 11.3 0.0 0.00 0.00 0.00 82 1013.7
20260507043211 48 248 12.2 0.0 0.00 0.00 0.00 80 1013.3
20260507040216 48 250 12.2 0.0 0.00 0.00 0.00 80 1012.9
20260507033211 47 263 13.9 0.0 0.00 0.00 0.00 80 1012.5
20260507030211 47 283 13.0 0.0 0.00 0.00 0.00 81 1012.4
20260507023211 47 246 8.7 0.0 0.00 0.00 0.00 81 1012.4
20260507020211 47 229 10.4 0.0 0.00 0.00 0.00 82 1012.1
20260507013212 47 236 13.0 0.0 0.00 0.00 0.00 83 1011.9
20260507010211 47 242 9.6 0.0 0.00 0.00 0.00 84 1012.0
20260507003209 47 263 6.1 0.0 0.00 0.00 0.00 83 1012.1
20260507000209 47 199 6.1 0.0 0.00 0.00 0.00 83 1012.1
20260506233209 47 269 3.5 0.0 0.00 0.00 0.00 83 1012.1
20260506230209 48 225 6.1 0.0 0.00 0.00 0.00 83 1011.8
20260506223209 48 232 7.8 0.0 0.00 0.00 0.00 83 1011.7
20260506213209 49 221 7.8 0.0 0.00 0.00 0.06 82 1011.4
20260506210210 49 200 7.8 0.0 0.00 0.00 0.06 82 1011.2
20260506203210 50 209 7.8 0.0 0.00 0.00 0.06 82 1011.3
20260506200210 50 243 7.8 0.0 0.00 0.00 0.06 82 1011.2
20260506193215 50 227 8.7 0.0 0.00 0.00 0.06 81 1010.7
20260506190211 50 238 12.2 0.0 0.00 0.00 0.06 80 1010.3
20260506183209 50 217 10.4 0.0 0.00 0.00 0.06 80 1010.0
20260506180216 51 296 10.4 0.0 0.00 0.00 0.06 81 1009.8
20260506173210 51 242 13.0 0.0 0.00 0.00 0.06 80 1009.3
20260506170215 51 262 13.0 0.0 0.00 0.00 0.06 80 1008.7
20260506163210 51 302 8.7 0.0 0.00 0.00 0.06 83 1008.8
20260506160210 51 259 18.2 0.0 0.00 0.00 0.06 81 1008.6
20260506153210 52 231 22.6 0.0 0.00 0.00 0.06 82 1008.2
20260506150210 62 221 22.6 0.0 0.00 0.00 0.03 66 1007.2